Regional Weather Roundup
Issued by NWS

Home | Current Version | Previous Version | Graphics & Text | Print | Product List | Glossary On
Versions: 1 2 3 4 5 6 7 8 9 10 11 12 13 14 15 16 17 18 19 20 21 22 23 24 25 26 27 28 29 30 31 32 33 34 35 36 37 38 39 40 41 42 43 44 45 46 47 48 49 50
443
ASUS45 KBOU 280207
RWRCO

WEATHER ROUNDUP FOR COLORADO
NATIONAL WEATHER SERVICE DENVER/BOULDER CO
800 PM MDT THU JUL 27 2017

NOTE: "FAIR" INDICATES FEW OR NO CLOUDS BELOW 12000 FEET WITH NO
SIGNIFICANT WEATHER AND/OR OBSTRUCTIONS TO VISIBILITY.

COZ001>005-013-030-031-280300-
...NORTHWEST COLORADO...

CITY           SKY/WX    TMP DP  RH WIND       PRES   REMARKS
CRAIG          FAIR      81  47  30 E5        30.18R
HAYDEN         FAIR      73  46  38 SE8       30.21S
MEEKER         FAIR      80  49  33 N7        30.18R
RABBIT EARS PA FAIR      59  45  58 CALM      30.55S
STEAMBOAT SPGS FAIR      71  49  45 CALM      30.24R
WALDEN         FAIR      68  43  40 CALM      30.35F
$$

COZ006>008-011-280300-
...WEST CENTRAL VALLEYS...

CITY           SKY/WX    TMP DP  RH WIND       PRES   REMARKS
GRAND JUNCTION FAIR      91  47  21 N13       30.00S
MONTROSE       FAIR      84  50  30 NW8       30.11S
EAGLE          FAIR      81  49  32 N12G21    30.19R
RIFLE          FAIR      87  50  27 N6        30.08R
DELTA          FAIR      90  41  17 CALM      30.05S
NUCLA          FAIR      82  45  26 E6        30.16F
$$

COZ017>023-064>068-280300-
...SOUTHWEST COLORADO...

CITY           SKY/WX    TMP DP  RH WIND       PRES   REMARKS
DURANGO        FAIR      76  48  37 NW5       30.21S
CORTEZ         FAIR      81  46  29 CALM      30.13S
PAGOSA SPRINGS FAIR      74  45  34 CALM      30.30R
TELLURIDE      FAIR      67  50  55 E3        30.43R
WOLF CREEK PAS FAIR      54  39  58 CALM      30.70S
$$

COZ009-010-012-014-032>034-037-058>063-280300-
...CENTRAL COLORADO...

CITY           SKY/WX    TMP DP  RH WIND       PRES   REMARKS
ASPEN          FAIR      77  45  32 VRB5      30.26S
BUENA VISTA    MOCLDY    67  54  61 E14       30.37R
COPPER MTN     FAIR      59  36  41 NW8       30.66R
BERTHOUD PASS  RAIN      46  36  66 NW12G30   30.70S
COTTONWOOD PAS CLOUDY    61  48  63 CALM      30.51R
GUNNISON       FAIR      71  50  47 S6        30.30R
KREMMLING      FAIR      79  45  29 N10       30.29R
LEADVILLE      CLOUDY    61  44  53 S18       30.44R
SALIDA         CLOUDY    65  56  70 SE8       30.41R
SUNLIGHT       FAIR      59  41  51 W7        30.58R
WILKERSON PASS CLOUDY    50  43  76 CALM      30.65R
$$

COZ069>075-280300-
...SAN LUIS VALLEY/SANGRE DE CRISTO MOUNTAINS...

CITY           SKY/WX    TMP DP  RH WIND       PRES   REMARKS
ALAMOSA        FAIR      67  51  56 SE9       30.31R
DEL NORTE      CLOUDY    68  48  49 N14       30.38R
LA VETA PASS   NOT AVBL
SAGUACHE         N/A    N/A N/A N/A MISG        N/A
$$

COZ035-036-038>040-280300-
...NORTHERN COLORADO FRONT RANGE...

CITY           SKY/WX    TMP DP  RH WIND       PRES   REMARKS
DENVER INTL AP MOCLDY    79  60  52 S15       30.13R
DMNS CITY PARK   N/A     74  64  69 SE10      30.12S
AURORA         NOT AVBL
FRONT RANGE AP FAIR      81  61  50 S10       30.15S
ERIE MUNI ARPT MOCLDY    82  56  41 S10G18    30.10R
BOULDER MUN AP FAIR      81  57  44 NW5       30.11R
CENTENNIAL     MOCLDY    75  60  59 S17       30.17R
BROOMFIELD     FAIR      79  55  44 SE10G18   30.15S
FORT COLLINS   MOCLDY    82  62  50 S5        30.09F
LONGMONT       MOCLDY    82  62  49 NW5       30.11R
$$

COZ041-046-047-076>085-087-088-280300-
...PIKES PEAK/PALMER DIVIDE AND SOUTHERN FOOTHILLS...

CITY           SKY/WX    TMP DP  RH WIND       PRES   REMARKS
COLO. SPRINGS  MOCLDY    72  61  68 S10       30.25R
A. F. ACADEMY  FAIR      69  60  71 S6        30.26R
SCHRIEVER AFB  FAIR      69  61  75 S9        30.25S
CHEYENNE MTN   MOCLDY    68  58  71 S13G18    30.25R
ELLICOTT       MOCLDY   N/A N/A N/A S13       30.24R
FALCON           N/A     67  59  75 S8        30.30S
FORT CARSON    MOCLDY    71  62  73 S6        30.22R
LIMON          FAIR      73  62  68 S14G21    30.17F
MONUMENT HILL  FAIR      64  59  82 S15       30.30S
CANON CITY     CLOUDY    77  64  65 E7        30.19S
WALSENBURG     MOCLDY    68  59  73 W7        30.23F
TRINIDAD       FAIR      69  57  65 W17       30.20F
$$

COZ042>045-048>051-090-091-280300-
...NORTHEAST COLORADO...

CITY           SKY/WX    TMP DP  RH WIND       PRES   REMARKS
GREELEY ARPT   FAIR      82  62  50 S5        30.07S
AKRON          FAIR      79  58  48 SE17      30.10R
BURLINGTON     FAIR      75  63  66 SE9       30.12R
WRAY           NOT AVBL
YUMA           FAIR      77  55  47 SE10      30.08S
STERLING       FAIR      81  61  50 SE14      30.03S
HOLYOKE        FAIR      81  63  54 SE9       30.06F
FORT MORGAN    FAIR      83  55  38 S15G22    30.07S
$$

COZ086-089-092>099-280300-
...SOUTHEAST COLORADO...

CITY           SKY/WX    TMP DP  RH WIND       PRES   REMARKS
PUEBLO         FAIR      78  65  63 SE9       30.14R
LA JUNTA       FAIR      78  66  66 SE12      30.11F
LAMAR          FAIR      75  67  76 E6        30.08S
SPRINGFIELD      N/A     71  68  90 E5        30.12F
$$




USA.gov is the U.S. government's official web portal to all federal, state and local government web resources and services.